Location: Montreal
(45.5087°N, 73.5540°W)
Time: 18:20:06
(UTC-04:00)

Amateur Radio Satellites - All Passes

Search period start: 25 June 2017 17:50
Search period end: 26 June 2017 17:50
Location: Montreal, 45.5087°N, 73.5540°W

Satellite Date Start Highest point End Downlink Frequencies (MHz)
Time Altitude Azimuth
KAITUO 1B 25 Jun 17:53:17 17:56:52 41° 72° (ENE) 18:00:26 145.475/437.950
KKS-1 25 Jun 18:00:11 18:04:41 84° 288° (WNW) 18:09:11 437.445
MOZHAYETS 4 25 Jun 18:04:59 18:07:08 13° 301° (WNW) 18:09:16
CUTE 1.7 + AOD 2 25 Jun 18:12:52 18:15:35 17° 63° (ENE) 18:18:17 437.475
CUBEBUG 2 25 Jun 18:24:15 18:26:36 14° 59° (ENE) 18:28:58 437.445
HO-68 25 Jun 18:25:46 18:32:26 43° 63° (ENE) 18:39:08 435.675
NUDT-PHONESAT 25 Jun 18:28:51 18:32:37 75° 258° (WSW) 18:36:24 437.300
STARS 25 Jun 18:30:01 18:34:30 87° 110° (ESE) 18:38:56 437.465
CUTE-I 25 Jun 18:42:01 18:47:16 59° 259° (W) 18:52:34 437.470
XW-2F 25 Jun 18:44:36 18:48:12 38° 262° (W) 18:51:48 145.980 - 146.000
CUBESAT XI-V 25 Jun 18:44:38 18:48:14 23° 296° (WNW) 18:51:50 437.345
AAUSAT CUBESAT 2 25 Jun 18:47:50 18:49:24 12° 60° (ENE) 18:50:57 437.432
XW-2D 25 Jun 18:48:45 18:52:13 32° 263° (W) 18:55:42 145.860 - 145.880
UWE-3 25 Jun 18:57:08 19:00:11 18° 62° (ENE) 19:03:15 435.000/436.395/437.385
LilacSat-2 25 Jun 18:57:17 19:00:33 26° 265° (W) 19:03:50 437.200
XW-2B 25 Jun 18:57:59 19:01:17 27° 265° (W) 19:04:34 145.730 - 145.750
DOVE 4 25 Jun 18:59:13 19:01:42 15° 271° (W) 19:04:13 437.250
RS-15 25 Jun 19:03:32 19:09:00 14° 92° (E) 19:14:30 29.354- 29.394
XW-2C 25 Jun 19:14:12 19:16:54 18° 268° (W) 19:19:35 145.795 - 145.815
STRAND 1 25 Jun 19:18:23 19:21:57 19° 91° (E) 19:25:30 437.568
XW-2A 25 Jun 19:18:52 19:22:15 55° 73° (ENE) 19:25:38 145.665 - 145.685
KAITUO 1B 25 Jun 19:28:43 19:31:03 16° 268° (W) 19:33:24 145.475/437.950
SEEDS 25 Jun 19:29:16 19:33:25 64° 75° (ENE) 19:37:35 437.485
KKS-1 25 Jun 19:39:17 19:40:31 11° 303° (WNW) 19:41:44 437.445
AO-85 25 Jun 19:43:25 19:44:09 10° 110° (ESE) 19:44:54 145.980
CUTE 1.7 + AOD 2 25 Jun 19:46:51 19:51:00 53° 260° (W) 19:55:11 437.475
AO-73 25 Jun 19:51:57 19:55:55 30° 67° (ENE) 19:59:55 145.935
CUBEBUG 2 25 Jun 19:57:55 20:02:31 81° 256° (WSW) 20:07:16 437.445
STARS 25 Jun 20:08:28 20:10:09 12° 302° (WNW) 20:11:50 437.465
PCSat 25 Jun 20:10:53 20:15:39 30° 44° (NE) 20:20:23 145.827
HO-68 25 Jun 20:13:23 20:20:08 43° 262° (W) 20:26:58 435.675
Oscar 11 25 Jun 20:18:56 20:23:01 42° 71° (ENE) 20:27:08 .
AAUSAT CUBESAT 2 25 Jun 20:20:09 20:24:16 75° 258° (WSW) 20:28:24 437.432
ZACube-1 25 Jun 20:26:19 20:30:51 72° 75° (ENE) 20:35:27 437.345
UWE-3 25 Jun 20:31:37 20:36:08 60° 259° (W) 20:40:47 435.000/436.395/437.385
O/OREOS (USA 219) 25 Jun 20:43:06 20:45:15 13° 98° (E) 20:47:23 437.305
SO-50 25 Jun 20:54:23 20:56:06 12° 26° (NNE) 20:57:49 436.795
STRAND 1 25 Jun 20:56:26 21:01:33 61° 288° (WNW) 21:06:36 437.568
RS-15 25 Jun 21:06:53 21:18:42 62° 115° (ESE) 21:30:45 29.354- 29.394
SEEDS 25 Jun 21:07:44 21:09:32 12° 271° (W) 21:11:20 437.485
EO-88 25 Jun 21:09:30 21:12:32 24° 68° (ENE) 21:15:34 145.990 - 145.960
NO-84 25 Jun 21:12:31 21:15:09 18° 126° (SE) 21:17:55 435.350 FM
BEESAT 3 25 Jun 21:15:44 21:19:37 54° 121° (ESE) 21:23:34 437.485
AO-85 25 Jun 21:19:55 21:23:57 80° 306° (NW) 21:27:55 145.980
YUBILEINY 25 Jun 21:27:34 21:35:29 39° 85° (E) 21:43:26 435.215
FO-29 25 Jun 21:28:00 21:34:11 25° 89° (E) 21:40:19 435.910
AO-73 25 Jun 21:28:02 21:32:05 31° 265° (W) 21:36:09 145.935
M-CUBED/EXP-1 PRIME 25 Jun 21:43:40 21:45:49 15° 99° (E) 21:48:03 437.505
DELFI C3 25 Jun 21:45:46 21:49:42 83° 260° (W) 21:53:38 145.870
PCSat 25 Jun 21:54:03 21:59:19 53° 245° (WSW) 22:04:34 145.827
Oscar 11 25 Jun 21:56:08 21:59:21 20° 268° (W) 22:02:34 .
PRISM 25 Jun 22:01:40 22:04:32 18° 93° (E) 22:07:23 437.425
ZACube-1 25 Jun 22:05:29 22:07:38 13° 272° (W) 22:09:48 437.345
TIGRISAT 25 Jun 22:11:46 22:15:35 24° 93° (E) 22:19:20 435.000
BEESAT 2 25 Jun 22:14:54 22:18:52 81° 126° (SE) 22:22:57 435.950
O/OREOS (USA 219) 25 Jun 22:19:31 22:24:03 70° 296° (WNW) 22:28:35 437.305
SO-50 25 Jun 22:33:19 22:37:42 46° 48° (NE) 22:42:04 436.795
ESTCUBE 1 25 Jun 22:39:33 22:43:23 28° 66° (ENE) 22:47:13 437.505/2401.250
EO-88 25 Jun 22:43:05 22:46:09 25° 265° (W) 22:49:13 145.990 - 145.960
NO-84 25 Jun 22:48:12 22:52:13 80° 324° (NW) 22:56:31 435.350 FM
UNISAT 6 25 Jun 22:53:23 22:58:04 68° 101° (ESE) 23:02:37 437.425
BEESAT 3 25 Jun 22:54:24 22:57:30 21° 320° (NW) 23:00:37 437.485
SPROUT 25 Jun 23:01:44 23:03:45 13° 60° (ENE) 23:05:47 437.525
AO-85 25 Jun 23:02:57 23:04:59 13° 326° (NNW) 23:07:00 145.980
LO-87 25 Jun 23:04:19 23:07:51 79° 76° (ENE) 23:11:28 145.935 - 145.965
FO-29 25 Jun 23:12:03 23:19:52 79° 287° (WNW) 23:27:39 435.910
M-CUBED/EXP-1 PRIME 25 Jun 23:16:53 23:20:26 48° 293° (WNW) 23:24:15 437.505
RS-15 25 Jun 23:19:43 23:31:40 53° 321° (NW) 23:43:42 29.354- 29.394
YUBILEINY 25 Jun 23:23:33 23:32:03 52° 287° (WNW) 23:40:39 435.215
PRISM 25 Jun 23:36:07 23:39:59 42° 290° (WNW) 23:43:52 437.425
POLYITAN 1 25 Jun 23:40:26 23:42:42 14° 90° (E) 23:44:58 437.675
TIGRISAT 25 Jun 23:48:02 23:52:23 39° 291° (WNW) 23:56:38 435.000
QB50P2 25 Jun 23:50:35 23:53:43 19° 92° (E) 23:56:50 145.880/145.840
BEESAT 2 25 Jun 23:54:32 23:57:10 17° 324° (NW) 23:59:50 435.950
AIST 2D 26 Jun 00:00:00 00:03:24 45° 99° (E) 00:06:45 435.315
O/OREOS (USA 219) 26 Jun 00:03:01 00:04:20 11° 316° (NW) 00:05:40 437.305
SO-50 26 Jun 00:14:14 00:17:55 25° 246° (WSW) 00:21:36 436.795
EO-79 26 Jun 00:14:29 00:18:20 31° 96° (E) 00:22:08 145.935-145.965
VELOX 1 26 Jun 00:15:50 00:20:10 67° 74° (ENE) 00:24:32 145.980
ESTCUBE 1 26 Jun 00:16:04 00:20:06 32° 264° (W) 00:24:09 437.505/2401.250
50 SAT 26 Jun 00:22:57 00:26:00 32° 70° (ENE) 00:29:04 437.505
NO-84 26 Jun 00:26:43 00:30:20 28° 345° (NNW) 00:34:07 435.350 FM
DUCHIFAT 1 26 Jun 00:28:05 00:32:01 35° 97° (E) 00:35:55 145.980
UNISAT 6 26 Jun 00:31:25 00:34:13 16° 300° (WNW) 00:36:59 437.425
SPROUT 26 Jun 00:34:49 00:39:04 73° 257° (WSW) 00:43:23 437.525
DX 1 26 Jun 00:34:52 00:38:50 37° 69° (ENE) 00:42:51 434.975-435.025
NANOSAT C BR1 26 Jun 00:36:37 00:40:47 49° 99° (E) 00:44:54 145.865
UKube-1 26 Jun 00:51:23 00:55:21 37° 69° (ENE) 00:59:20 .
FO-29 26 Jun 00:58:25 01:03:44 21° 307° (NW) 01:09:07 435.910
POLYITAN 1 26 Jun 01:14:38 01:18:52 59° 288° (WNW) 01:23:04 437.675
QB50P2 26 Jun 01:25:38 01:29:42 42° 290° (WNW) 01:33:43 145.880/145.840
YUBILEINY 26 Jun 01:28:39 01:31:28 12° 312° (NW) 01:34:19 435.215
AIST 2D 26 Jun 01:34:30 01:36:13 13° 296° (WNW) 01:37:56 435.315
BUGSAT 1 26 Jun 01:36:41 01:40:55 60° 101° (E) 01:45:05 437.445
RS-15 26 Jun 01:37:14 01:47:50 31° 353° (N) 01:58:17 29.354- 29.394
EO-79 26 Jun 01:50:23 01:53:58 26° 294° (WNW) 01:57:33 145.935-145.965
Oscar 19 26 Jun 01:52:52 01:57:32 34° 96° (E) 02:02:09 437.125/150
VELOX 1 26 Jun 01:55:04 01:57:05 13° 271° (W) 01:59:05 145.980
MOZHAYETS 4 26 Jun 01:55:32 01:57:44 13° 59° (ENE) 01:59:54
50 SAT 26 Jun 01:56:50 01:58:54 15° 267° (W) 02:01:00 437.505
DUCHIFAT 1 26 Jun 02:04:05 02:07:30 24° 295° (WNW) 02:10:53 145.980
NO-84 26 Jun 02:05:27 02:08:59 24° 7° (N) 02:12:34 435.350 FM
DX 1 26 Jun 02:11:43 02:15:08 23° 266° (W) 02:18:34 434.975-435.025
NANOSAT C BR1 26 Jun 02:13:13 02:16:08 18° 297° (WNW) 02:19:02 145.865
ITUPSAT 1 26 Jun 02:15:50 02:20:03 31° 66° (ENE) 02:24:17 437.325
BEESAT 26 Jun 02:25:20 02:29:45 38° 68° (ENE) 02:34:11 436.000
UKube-1 26 Jun 02:28:08 02:31:29 22° 266° (W) 02:34:52 .
Gurwin Techsat 1B 26 Jun 02:48:52 02:54:12 69° 102° (ESE) 02:59:30 435.225
BUGSAT 1 26 Jun 03:13:19 03:15:47 15° 299° (WNW) 03:18:16 437.445
KKS-1 26 Jun 03:26:04 03:28:28 15° 60° (ENE) 03:30:53 437.445
MOZHAYETS 4 26 Jun 03:29:34 03:34:13 83° 256° (WSW) 03:38:54
Oscar 19 26 Jun 03:32:15 03:36:49 33° 294° (WNW) 03:41:21 437.125/150
NO-84 26 Jun 03:43:10 03:47:24 46° 27° (NNE) 03:51:36 435.350 FM
RS-15 26 Jun 03:53:24 04:04:47 40° 27° (NNE) 04:15:43 29.354- 29.394
ITUPSAT 1 26 Jun 03:53:29 03:57:49 33° 263° (W) 04:02:10 437.325
BEESAT 3 26 Jun 03:54:13 03:56:03 13° 32° (NNE) 03:57:52 437.485
STARS 26 Jun 03:55:10 03:57:03 13° 58° (ENE) 03:58:55 437.465
BEESAT 26 Jun 04:03:36 04:07:36 26° 265° (W) 04:11:39 436.000
AO-85 26 Jun 04:08:42 04:11:58 23° 41° (NE) 04:15:22 145.980
ITAMSAT 1 26 Jun 04:10:06 04:15:14 51° 100° (E) 04:20:19 435.822/435.867
CUBESAT XI-V 26 Jun 04:11:50 04:16:20 53° 72° (ENE) 04:20:50 437.345
AO-7 26 Jun 04:17:12 04:25:26 55° 102° (ESE) 04:33:35 .
Gurwin Techsat 1B 26 Jun 04:29:55 04:33:37 19° 301° (WNW) 04:37:17 435.225
BEESAT 2 26 Jun 04:53:41 04:56:19 16° 36° (NE) 04:58:55 435.950
KKS-1 26 Jun 05:00:03 05:04:28 70° 257° (WSW) 05:08:56 437.445
DOVE 4 26 Jun 05:16:35 05:19:11 14° 89° (E) 05:21:49 437.250
NO-84 26 Jun 05:20:53 05:25:00 40° 226° (SW) 05:29:01 435.350 FM
STARS 26 Jun 05:28:21 05:32:44 81° 257° (WSW) 05:37:10 437.465
BEESAT 3 26 Jun 05:30:24 05:34:25 66° 52° (NE) 05:38:22 437.485
AO-85 26 Jun 05:48:35 05:52:34 50° 239° (WSW) 05:56:47 145.980
ITAMSAT 1 26 Jun 05:50:13 05:54:22 24° 298° (WNW) 05:58:31 435.822/435.867
CUBESAT XI-V 26 Jun 05:50:52 05:54:00 18° 269° (W) 05:57:10 437.345
RS-15 26 Jun 06:06:42 06:18:59 90° 236° (WSW) 06:30:38 29.354- 29.394
AO-7 26 Jun 06:10:21 06:17:57 40° 303° (WNW) 06:25:32 .
XW-2F 26 Jun 06:15:05 06:17:39 17° 92° (E) 06:20:13 145.980 - 146.000
XW-2D 26 Jun 06:19:10 06:22:06 21° 94° (E) 06:25:00 145.860 - 145.880
LilacSat-2 26 Jun 06:27:52 06:31:09 27° 96° (E) 06:34:23 437.200
XW-2B 26 Jun 06:28:00 06:31:11 25° 95° (E) 06:34:20 145.730 - 145.750
BEESAT 2 26 Jun 06:30:32 06:34:37 84° 236° (SW) 06:38:39 435.950
STRAND 1 26 Jun 06:36:00 06:40:34 34° 66° (ENE) 06:45:11 437.568
XW-2C 26 Jun 06:43:14 06:46:48 38° 98° (E) 06:50:19 145.795 - 145.815
O/OREOS (USA 219) 26 Jun 06:48:15 06:52:27 38° 59° (ENE) 06:56:37 437.305
DOVE 4 26 Jun 06:52:26 06:57:20 78° 284° (WNW) 07:02:28 437.250
KAITUO 1B 26 Jun 06:55:59 06:59:33 42° 99° (E) 07:03:03 145.475/437.950
CUTE-I 26 Jun 06:56:39 07:01:51 47° 99° (E) 07:07:01 437.470
BEESAT 3 26 Jun 07:09:28 07:11:28 13° 250° (WSW) 07:13:27 437.485
Tancredo 1 26 Jun 07:28:43 07:30:26 14° 135° (SE) 07:32:08 437.200
CUTE 1.7 + AOD 2 26 Jun 07:29:52 07:33:10 22° 93° (E) 07:36:26 437.475
NUDT-PHONESAT 26 Jun 07:30:48 07:34:30 72° 285° (WNW) 07:38:09 437.300
YUBILEINY 26 Jun 07:34:41 07:41:18 22° 59° (ENE) 07:47:49 435.215
HO-68 26 Jun 07:38:14 07:44:44 35° 96° (E) 07:51:10 435.675
FO-29 26 Jun 07:45:38 07:48:43 14° 47° (NE) 07:51:56 435.910
CUBEBUG 2 26 Jun 07:47:22 07:50:49 20° 91° (E) 07:54:12 437.445
XW-2F 26 Jun 07:48:28 07:51:55 35° 289° (WNW) 07:55:20 145.980 - 146.000
XW-2D 26 Jun 07:53:00 07:56:19 30° 291° (WNW) 07:59:37 145.860 - 145.880
ISS 26 Jun 07:55:03 07:56:49 14° 133° (SE) 07:58:36 437.550
AAUSAT CUBESAT 2 26 Jun 08:01:12 08:03:29 14° 90° (E) 08:05:46 437.432
XW-2B 26 Jun 08:02:10 08:05:18 25° 292° (WNW) 08:08:24 145.730 - 145.750
LilacSat-2 26 Jun 08:02:15 08:05:19 24° 293° (WNW) 08:08:22 437.200
AO-7 26 Jun 08:06:07 08:08:25 11° 326° (NW) 08:10:43 .
XW-2A 26 Jun 08:11:06 08:14:23 41° 98° (E) 08:17:36 145.665 - 145.685
ZACube-1 26 Jun 08:14:31 08:16:19 12° 87° (E) 08:18:06 437.345
STRAND 1 26 Jun 08:15:03 08:19:43 34° 264° (W) 08:24:24 437.568
XW-2C 26 Jun 08:18:11 08:20:43 17° 295° (WNW) 08:23:13 145.795 - 145.815
UWE-3 26 Jun 08:19:30 08:23:17 25° 93° (E) 08:26:58 435.000/436.395/437.385
RS-15 26 Jun 08:20:37 08:29:47 27° 260° (W) 08:38:39 29.354- 29.394
UNISAT 6 26 Jun 08:21:35 08:22:29 10° 56° (NE) 08:23:22 437.425
O/OREOS (USA 219) 26 Jun 08:28:03 08:31:39 24° 257° (WSW) 08:35:15 437.305
KAITUO 1B 26 Jun 08:30:57 08:33:13 16° 296° (WNW) 08:35:28 145.475/437.950
M-CUBED/EXP-1 PRIME 26 Jun 08:31:42 08:34:19 23° 62° (ENE) 08:36:56 437.505
DOVE 4 26 Jun 08:32:37 08:34:16 12° 302° (WNW) 08:35:57 437.250
CUTE-I 26 Jun 08:37:11 08:41:39 27° 297° (WNW) 08:46:06 437.470
SEEDS 26 Jun 08:46:12 08:50:23 87° 282° (WNW) 08:54:33 437.485
PRISM 26 Jun 08:53:14 08:56:02 18° 63° (ENE) 08:58:50 437.425
Tancredo 1 26 Jun 09:02:36 09:05:38 83° 332° (NNW) 09:08:41 437.200
CUTE 1.7 + AOD 2 26 Jun 09:05:14 09:09:06 36° 290° (WNW) 09:12:55 437.475
TIGRISAT 26 Jun 09:12:12 09:16:09 28° 66° (ENE) 09:20:09 435.000
AO-73 26 Jun 09:13:16 09:17:33 44° 98° (E) 09:21:42 145.935
DELFI C3 26 Jun 09:22:57 09:23:45 10° 88° (E) 09:24:33 145.870
CUBEBUG 2 26 Jun 09:23:08 09:27:42 49° 289° (WNW) 09:32:08 437.445
HO-68 26 Jun 09:25:46 09:32:39 51° 295° (WNW) 09:39:29 435.675
FO-29 26 Jun 09:26:07 09:32:12 62° 69° (ENE) 09:39:07 435.910
ISS 26 Jun 09:29:35 09:32:52 88° 154° (SSE) 09:36:10 437.550
YUBILEINY 26 Jun 09:30:31 09:39:26 90° 231° (SW) 09:48:14 435.215
AAUSAT CUBESAT 2 26 Jun 09:35:15 09:39:16 53° 288° (WNW) 09:43:16 437.432
Oscar 11 26 Jun 09:39:33 09:43:50 64° 101° (E) 09:48:06 .
XW-2A 26 Jun 09:45:03 09:46:46 13° 296° (WNW) 09:48:30 145.665 - 145.685
ZACube-1 26 Jun 09:48:39 09:53:08 72° 285° (WNW) 09:57:29 437.345
UNISAT 6 26 Jun 09:53:43 09:58:19 76° 75° (ENE) 10:03:02 437.425
UWE-3 26 Jun 09:55:35 09:59:50 37° 291° (WNW) 10:03:58 435.000/436.395/437.385
M-CUBED/EXP-1 PRIME 26 Jun 10:06:11 10:08:45 21° 259° (W) 10:11:20 437.505
EO-88 26 Jun 10:09:20 10:12:16 22° 94° (E) 10:15:11 145.990 - 145.960
PRISM 26 Jun 10:27:08 10:31:00 43° 261° (W) 10:34:54 437.425
POLYITAN 1 26 Jun 10:35:12 10:37:42 15° 61° (ENE) 10:40:13 437.675
AIST 2D 26 Jun 10:36:35 10:39:28 24° 69° (ENE) 10:42:23 435.315
Tancredo 1 26 Jun 10:38:51 10:41:31 27° 351° (N) 10:44:11 437.200
QB50P2 26 Jun 10:45:18 10:48:27 20° 64° (ENE) 10:51:37 145.880/145.840
TIGRISAT 26 Jun 10:48:30 10:52:41 34° 264° (W) 10:57:00 435.000
AO-73 26 Jun 10:50:09 10:53:28 21° 296° (WNW) 10:56:44 145.935
DELFI C3 26 Jun 10:55:03 10:58:58 68° 285° (WNW) 11:02:53 145.870
PCSat 26 Jun 10:57:23 11:00:06 14° 103° (ESE) 11:02:49 145.827
ISS 26 Jun 11:06:41 11:09:39 30° 350° (N) 11:12:38 437.550
EO-79 26 Jun 11:08:47 11:12:32 31° 68° (ENE) 11:16:20 145.935-145.965
FO-29 26 Jun 11:12:51 11:17:51 25° 272° (W) 11:23:23 435.910
HO-68 26 Jun 11:16:16 11:18:45 12° 316° (NW) 11:21:14 435.675
Oscar 11 26 Jun 11:17:06 11:19:28 15° 299° (WNW) 11:21:50 .
DUCHIFAT 1 26 Jun 11:21:42 11:25:32 34° 69° (ENE) 11:29:24 145.980
YUBILEINY 26 Jun 11:29:02 11:34:57 20° 284° (WNW) 11:40:51 435.215
NANOSAT C BR1 26 Jun 11:30:24 11:34:28 47° 71° (ENE) 11:38:35 145.865
UNISAT 6 26 Jun 11:33:31 11:35:35 13° 272° (W) 11:37:40 437.425
EO-88 26 Jun 11:42:50 11:45:55 26° 292° (WNW) 11:48:59 145.990 - 145.960
LO-87 26 Jun 12:02:14 12:05:53 72° 100° (E) 12:09:31 145.935 - 145.965
ESTCUBE 1 26 Jun 12:05:37 12:09:54 43° 99° (E) 12:14:10 437.505/2401.250
VELOX 1 26 Jun 12:06:08 12:07:06 11° 88° (E) 12:08:05 145.980
POLYITAN 1 26 Jun 12:08:47 12:13:00 61° 259° (W) 12:17:16 437.675
AIST 2D 26 Jun 12:09:42 12:12:36 23° 265° (W) 12:15:33 435.315
Tancredo 1 26 Jun 12:14:58 12:17:41 28° 11° (N) 12:20:23 437.200
SPROUT 26 Jun 12:19:13 12:21:59 16° 91° (E) 12:24:44 437.525
QB50P2 26 Jun 12:19:54 12:23:57 42° 262° (W) 12:28:04 145.880/145.840
BUGSAT 1 26 Jun 12:28:03 12:32:06 54° 72° (ENE) 12:36:13 437.445
Gurwin Techsat 1B 26 Jun 12:34:14 12:38:06 21° 60° (ENE) 12:41:58 435.225
PCSat 26 Jun 12:37:16 12:42:42 90° 297° (WNW) 12:48:10 145.827
ISS 26 Jun 12:43:45 12:46:44 30° 10° (N) 12:49:42 437.550
EO-79 26 Jun 12:44:43 12:48:18 26° 265° (W) 12:51:55 145.935-145.965
DUCHIFAT 1 26 Jun 12:57:51 13:01:16 23° 266° (W) 13:04:42 145.980
NANOSAT C BR1 26 Jun 13:07:37 13:10:26 17° 268° (W) 13:13:17 145.865
Oscar 19 26 Jun 13:11:40 13:16:45 63° 72° (ENE) 13:21:51 437.125/150
50 SAT 26 Jun 13:15:46 13:18:36 24° 96° (E) 13:21:26 437.505
AO-7 26 Jun 13:28:44 13:34:57 24° 48° (NE) 13:41:10 .
VELOX 1 26 Jun 13:39:40 13:44:07 82° 287° (WNW) 13:48:34 145.980
ESTCUBE 1 26 Jun 13:43:01 13:46:26 22° 296° (WNW) 13:49:50 437.505/2401.250
Tancredo 1 26 Jun 13:50:28 13:53:31 84° 205° (SSW) 13:56:33 437.200
ITAMSAT 1 26 Jun 13:53:39 13:56:39 16° 57° (ENE) 13:59:40 435.822/435.867
SPROUT 26 Jun 13:54:00 13:58:11 51° 288° (WNW) 14:02:20 437.525
DX 1 26 Jun 13:56:19 14:00:35 50° 100° (E) 14:04:51 434.975-435.025
BUGSAT 1 26 Jun 14:05:29 14:07:48 15° 270° (W) 14:10:09 437.445
UKube-1 26 Jun 14:11:33 14:15:46 49° 100° (E) 14:19:58 .
Gurwin Techsat 1B 26 Jun 14:12:19 14:17:34 63° 258° (WSW) 14:22:52 435.225
ISS 26 Jun 14:20:12 14:23:30 90° 241° (WSW) 14:26:49 437.550
PCSat 26 Jun 14:22:53 14:26:51 20° 322° (NW) 14:30:52 145.827
SO-50 26 Jun 14:29:24 14:33:53 61° 122° (ESE) 14:38:21 436.795
50 SAT 26 Jun 14:48:38 14:51:18 21° 292° (WNW) 14:53:57 437.505
Oscar 19 26 Jun 14:53:02 14:56:30 18° 269° (W) 14:59:59 437.125/150
AO-7 26 Jun 15:18:18 15:26:38 86° 70° (ENE) 15:35:03 .
VELOX 1 26 Jun 15:18:57 15:19:49 10° 303° (WNW) 15:20:40 145.980
MOZHAYETS 4 26 Jun 15:23:09 15:26:29 20° 92° (E) 15:29:47
Tancredo 1 26 Jun 15:27:25 15:28:39 12° 227° (SW) 15:29:52 437.200
ITAMSAT 1 26 Jun 15:30:12 15:35:25 85° 256° (WSW) 15:40:41 435.822/435.867
DX 1 26 Jun 15:33:24 15:36:24 19° 298° (WNW) 15:39:26 434.975-435.025
UKube-1 26 Jun 15:48:27 15:51:26 19° 298° (WNW) 15:54:25 .
ITUPSAT 1 26 Jun 15:51:01 15:55:43 52° 100° (E) 16:00:23 437.325
ISS 26 Jun 15:57:42 15:59:34 14° 226° (SW) 16:01:25 437.550
BEESAT 26 Jun 16:00:17 16:05:03 66° 102° (ESE) 16:09:48 436.000
CUBESAT XI-V 26 Jun 16:08:32 16:09:41 11° 87° (E) 16:10:49 437.345
SO-50 26 Jun 16:11:03 16:14:42 23° 321° (NW) 16:18:22 436.795
DOVE 4 26 Jun 16:24:58 16:27:23 15° 61° (ENE) 16:29:52 437.250
CUTE-I 26 Jun 16:43:40 16:46:41 15° 56° (ENE) 16:49:42 437.470
KKS-1 26 Jun 16:49:27 16:52:39 19° 92° (E) 16:55:49 437.445
XW-2F 26 Jun 16:58:55 17:00:46 13° 63° (ENE) 17:02:37 145.980 - 146.000
MOZHAYETS 4 26 Jun 16:59:29 17:03:53 47° 289° (WNW) 17:08:15
XW-2D 26 Jun 17:03:06 17:05:27 16° 64° (ENE) 17:07:48 145.860 - 145.880
XW-2B 26 Jun 17:11:42 17:14:25 19° 65° (ENE) 17:17:08 145.730 - 145.750
LilacSat-2 26 Jun 17:12:06 17:14:58 20° 66° (ENE) 17:17:50 437.200
ITAMSAT 1 26 Jun 17:14:04 17:15:40 11° 273° (W) 17:17:16 435.822/435.867
AO-7 26 Jun 17:14:19 17:20:23 22° 269° (W) 17:26:32 .
STARS 26 Jun 17:16:34 17:19:15 16° 91° (E) 17:21:55 437.465
XW-2C 26 Jun 17:26:36 17:29:52 27° 68° (ENE) 17:33:07 145.795 - 145.815
ITUPSAT 1 26 Jun 17:29:38 17:33:10 21° 298° (WNW) 17:36:42 437.325
KAITUO 1B 26 Jun 17:38:02 17:41:17 28° 69° (ENE) 17:44:32 145.475/437.950
BEESAT 26 Jun 17:39:16 17:42:19 17° 300° (WNW) 17:45:23 436.000
